Total_Precipitation_Accumulation
0.04 0.06 0.10 0.09 0.09 0.17 0.17 0.18 0.27 0.33 0.28 0.34 0.49 0.62 0.84 1.01 1.28 1.55 1.55 1.50 1.57 1.82 2.11 2.35 2.71 3.09 3.30 3.48 3.58 3.89 4.10 3.85 3.40 3.02 2.57 2.42 2.36 2.14 1.96 1.87 1.73 1.87 1.84 2.08
0.03 0.05 0.07 0.05 0.05 0.10 0.13 0.15 0.27 0.34 0.29 0.33 0.49 0.79 0.95 1.03 1.09 1.23 1.35 1.27 1.36 1.67 1.73 1.83 2.00 2.31 2.46 2.70 2.99 3.32 3.54 3.37 2.83 2.61 2.45 2.36 2.30 2.13 2.11 2.04 2.03 1.82 1.81 2.02
0.03 0.05 0.05 0.04 0.04 0.06 0.12 0.13 0.19 0.28 0.33 0.43 0.54 1.12 1.18 1.03 0.95 0.88 1.06 1.12 1.12 1.31 1.46 1.53 1.57 1.66 1.97 2.52 2.73 2.63 2.85 3.01 2.74 2.62 2.54 2.46 2.42 2.22 2.28 2.23 2.14 1.78 1.66 1.70
0.03 0.03 0.03 0.04 0.04 0.05 0.11 0.10 0.11 0.16 0.25 0.55 0.65 1.20 1.24 1.07 1.08 0.88 0.86 0.93 0.87 0.84 1.04 1.21 1.24 1.32 1.53 1.82 2.10 2.40 2.68 2.79 2.70 2.56 2.33 2.20 2.02 1.94 1.94 1.95 1.99 1.84 1.74 1.66
0.03 0.02 0.02 0.03 0.04 0.04 0.06 0.06 0.08 0.15 0.26 0.49 0.62 1.00 1.22 1.05 1.22 0.95 0.68 0.58 0.53 0.50 0.63 0.82 0.95 1.09 1.16 1.30 1.68 2.19 2.60 2.82 2.67 2.38 2.21 2.25 2.08 2.02 1.95 1.87 2.11 1.98 1.85 1.71
0.02 0.02 0.02 0.02 0.03 0.03 0.03 0.07 0.17 0.30 0.46 0.83 0.79 0.84 1.13 0.89 0.74 0.58 0.46 0.37 0.37 0.41 0.46 0.58 0.70 0.91 1.02 1.10 1.34 1.74 2.10 2.33 2.36 2.23 2.14 2.21 2.25 2.22 2.07 1.90 1.89 1.75 1.74 1.68
0.08 0.07 0.04 0.03 0.02 0.03 0.03 0.08 0.31 0.56 0.82 0.98 0.63 0.81 1.16 0.73 0.57 0.45 0.37 0.35 0.34 0.33 0.46 0.60 0.68 0.79 0.82 0.86 1.05 1.36 1.59 1.77 1.98 2.09 2.10 2.07 2.20 2.24 2.03 1.82 1.81 1.80 1.66 1.63
0.10 0.16 0.07 0.03 0.03 0.04 0.04 0.06 0.16 0.28 0.41 0.58 0.63 1.28 1.17 0.60 0.45 0.38 0.33 0.32 0.33 0.34 0.42 0.58 0.71 0.74 0.75 0.78 0.97 1.16 1.34 1.57 1.83 1.99 2.06 2.05 2.00 1.88 1.83 1.94 1.85 1.83 1.78 1.72
0.04 0.06 0.05 0.04 0.03 0.04 0.05 0.06 0.08 0.12 0.16 0.41 0.76 0.96 0.72 0.40 0.38 0.40 0.36 0.38 0.40 0.46 0.57 0.67 0.82 0.87 0.77 0.81 0.98 1.09 1.26 1.43 1.57 1.82 1.99 1.92 1.91 1.79 1.77 1.82 1.76 1.71 1.84 1.80
0.03 0.03 0.03 0.03 0.03 0.04 0.05 0.04 0.07 0.09 0.14 0.31 0.61 0.85 0.90 0.61 0.47 0.42 0.41 0.43 0.45 0.57 0.76 0.89 0.88 0.90 0.85 0.86 0.99 1.08 1.24 1.35 1.37 1.49 1.56 1.46 1.67 1.73 1.85 1.83 1.73 1.65 1.65 1.68
0.02 0.02 0.02 0.03 0.04 0.06 0.07 0.05 0.05 0.06 0.08 0.20 0.48 0.67 0.65 0.60 0.56 0.43 0.41 0.49 0.57 0.58 0.77 0.89 0.86 0.86 0.82 0.86 0.93 0.97 1.10 1.21 1.24 1.36 1.43 1.50 1.60 1.68 1.73 1.75 1.74 1.72 1.73 1.75
0.02 0.02 0.02 0.04 0.06 0.06 0.09 0.10 0.10 0.09 0.08 0.12 0.24 0.39 0.37 0.43 0.51 0.43 0.44 0.55 0.65 0.51 0.59 0.80 0.88 0.93 0.74 0.79 0.86 0.90 1.00 1.11 1.16 1.33 1.48 1.56 1.73 1.77 1.70 1.69 1.88 1.90 1.87 1.87
0.02 0.02 0.03 0.10 0.15 0.11 0.08 0.08 0.10 0.10 0.09 0.09 0.17 0.33 0.32 0.36 0.46 0.43 0.49 0.59 0.62 0.61 0.60 0.76 0.87 0.81 0.72 0.75 0.82 0.86 0.95 1.05 1.14 1.28 1.46 1.66 1.73 1.78 1.88 2.01 2.17 2.23 2.14 2.10
0.03 0.02 0.03 0.11 0.19 0.23 0.17 0.10 0.09 0.09 0.09 0.08 0.13 0.25 0.33 0.42 0.48 0.48 0.51 0.62 0.64 0.61 0.59 0.60 0.78 0.82 0.75 0.74 0.77 0.83 0.95 1.08 1.26 1.51 1.67 1.80 1.98 2.08 2.14 2.09 2.18 2.21 2.22 2.26
0.03 0.02 0.02 0.05 0.08 0.13 0.13 0.10 0.09 0.08 0.08 0.10 0.14 0.23 0.34 0.43 0.49 0.56 0.58 0.59 0.60 0.55 0.58 0.71 0.83 0.97 0.97 0.90 0.84 0.90 1.12 1.33 1.55 1.82 1.91 1.94 2.01 2.12 2.26 2.38 2.41 2.39 2.38 2.34
0.05 0.04 0.05 0.06 0.08 0.09 0.08 0.08 0.08 0.07 0.07 0.09 0.14 0.24 0.36 0.49 0.54 0.50 0.52 0.51 0.55 0.64 0.70 0.86 0.98 1.09 1.19 1.23 1.22 1.27 1.43 1.69 2.00 2.30 2.42 2.53 2.59 2.65 2.70 2.74 2.77 2.81 2.76 2.71
0.14 0.15 0.14 0.13 0.12 0.12 0.10 0.10 0.10 0.10 0.11 0.13 0.19 0.28 0.43 0.58 0.55 0.61 0.64 0.61 0.70 0.77 0.86 0.97 1.07 1.14 1.28 1.33 1.41 1.58 1.77 2.02 2.26 2.44 2.54 2.66 2.76 2.89 2.99 3.01 3.02 2.91 2.84 2.78
0.34 0.30 0.24 0.19 0.23 0.25 0.15 0.16 0.19 0.22 0.25 0.28 0.31 0.38 0.47 0.59 0.61 0.65 0.69 0.68 0.71 0.83 1.00 1.03 1.10 1.21 1.28 1.41 1.58 1.74 1.85 2.01 2.34 2.54 2.62 2.67 2.71 2.81 2.97 3.13 3.08 2.94 2.90 2.85
0.42 0.48 0.43 0.32 0.29 0.31 0.30 0.27 0.29 0.38 0.47 0.44 0.59 0.67 0.62 0.65 0.71 0.74 0.74 0.89 0.90 0.90 0.99 1.05 1.17 1.26 1.37 1.44 1.50 1.53 1.63 1.82 2.04 2.26 2.44 2.44 2.56 2.76 2.86 2.91 2.94 3.00 2.97 2.78
0.34 0.38 0.45 0.47 0.49 0.46 0.45 0.47 0.38 0.44 0.77 0.77 0.86 0.95 0.89 0.91 1.10 1.02 0.79 0.79 0.86 0.93 1.00 1.11 1.27 1.35 1.35 1.36 1.37 1.45 1.61 1.83 2.03 2.24 2.44 2.60 2.73 2.87 2.91 2.97 3.07 3.09 3.03 2.98
0.50 0.52 0.51 0.53 0.58 0.58 0.51 0.47 0.48 0.81 1.09 1.07 1.15 1.18 1.11 1.15 1.18 1.10 0.94 0.88 0.87 0.93 1.01 1.09 1.25 1.40 1.44 1.42 1.55 1.67 1.81 1.97 2.15 2.27 2.36 2.50 2.68 2.89 3.13 3.30 3.22 3.20 3.14 3.03
0.73 0.73 0.71 0.75 0.94 1.06 0.78 0.71 0.92 1.11 0.88 0.94 1.12 1.33 1.35 1.29 1.20 1.12 1.03 0.97 0.90 0.86 0.93 1.10 1.22 1.36 1.51 1.62 1.77 1.90 1.92 1.99 2.17 2.37 2.45 2.51 2.69 2.75 2.90 3.15 3.17 3.08 3.05 2.95
0.84 0.95 1.04 1.08 1.25 1.14 0.96 0.98 0.93 1.01 1.18 1.25 1.34 1.54 1.57 1.41 1.27 1.27 1.19 1.08 1.00 0.97 1.02 1.14 1.25 1.38 1.47 1.66 1.84 1.99 2.09 2.17 2.26 2.37 2.51 2.67 2.74 2.76 2.87 3.04 3.10 3.06 2.96 2.83
0.89 0.78 0.99 1.29 1.43 1.26 1.11 1.08 1.04 1.10 1.30 1.38 1.36 1.40 1.43 1.39 1.32 1.44 1.44 1.28 1.23 1.25 1.24 1.28 1.36 1.43 1.50 1.60 1.78 1.98 2.10 2.15 2.27 2.33 2.38 2.52 2.64 2.76 2.90 2.91 2.79 2.65 2.50 2.43
0.94 0.97 1.15 1.56 1.75 1.68 1.49 1.36 1.27 1.29 1.25 1.33 1.27 1.30 1.31 1.34 1.34 1.41 1.52 1.55 1.48 1.36 1.31 1.36 1.44 1.52 1.55 1.60 1.67 1.89 2.10 2.18 2.21 2.30 2.35 2.33 2.35 2.43 2.56 2.62 2.56 2.42 2.26 2.15
1.03 1.24 1.55 1.94 1.93 2.03 1.90 1.58 1.40 1.46 1.43 1.38 1.33 1.40 1.46 1.43 1.38 1.41 1.54 1.58 1.55 1.46 1.41 1.44 1.47 1.49 1.52 1.61 1.72 1.81 2.08 2.33 2.38 2.35 2.22 2.13 2.04 2.04 2.07 2.06 2.10 2.20 2.09 2.06